This is the latest recevied weather packets stored in our database for station/object K7KAR-2. If no packets are shown the sender has not sent any weather packets the latest 10 day(s).
| Time | Temp. | Humidity | Pressure | Rain* | Wind** | Luminosity | Snow |
|---|---|---|---|---|---|---|---|
| 1777480503 | 10.56° C | 20% | 1021.1 hPa | 0 mm | - | 881 W/m² | - |
| 1777480199 | 10° C | 19% | 1021.1 hPa | 0 mm | - | 888 W/m² | - |
| 1777479896 | 10° C | 19% | 1021.1 hPa | 0 mm | - | 914 W/m² | - |
| 1777479593 | 10° C | 20% | 1021.1 hPa | 0 mm | - | 904 W/m² | - |
| 1777479291 | 10° C | 19% | 1020.9 hPa | 0 mm | - | 848 W/m² | - |
| 1777478987 | 10° C | 19% | 1021 hPa | 0 mm | - | 331 W/m² | - |
| 1777478684 | 10° C | 21% | 1020.9 hPa | 0 mm | - | 856 W/m² | - |
| 1777478380 | 10° C | 21% | 1020.8 hPa | 0 mm | - | 840 W/m² | - |
| 1777478077 | 10° C | 22% | 1021.1 hPa | 0 mm | - | 815 W/m² | - |
| 1777477772 | 10° C | 22% | 1020.7 hPa | 0 mm | - | 814 W/m² | - |
| 1777477469 | 9.44° C | 24% | 1020.6 hPa | 0 mm | - | 808 W/m² | - |
| 1777477166 | 10° C | 23% | 1020.7 hPa | 0 mm | - | 792 W/m² | - |
| 1777476862 | 9.44° C | 24% | 1020.7 hPa | 0 mm | - | 777 W/m² | - |
| 1777476560 | 10° C | 26% | 1020.6 hPa | 0 mm | - | 773 W/m² | - |
| 1777476256 | 10° C | 27% | 1020.7 hPa | 0 mm | - | 742 W/m² | - |
| 1777475951 | 9.44° C | 28% | 1020.7 hPa | 0 mm | - | 528 W/m² | - |
| 1777475648 | 10° C | 26% | 1020.5 hPa | 0 mm | - | 716 W/m² | - |
| 1777475344 | 10° C | 25% | 1020.6 hPa | 0 mm | - | 618 W/m² | - |
| 1777475039 | 9.44° C | 24% | 1020.6 hPa | 0 mm | - | 372 W/m² | - |
| 1777474736 | 9.44° C | 26% | 1020.3 hPa | 0 mm | - | 239 W/m² | - |
| 1777474433 | 10° C | 27% | 1020.2 hPa | 0 mm | - | 231 W/m² | - |
| 1777474129 | 10° C | 26% | 1020.2 hPa | 0 mm | - | 438 W/m² | - |
| 1777473827 | 10° C | 24% | 1020 hPa | 0 mm | - | 640 W/m² | - |
| 1777473524 | 10° C | 26% | 1020.1 hPa | 0 mm | - | 422 W/m² | - |
| 1777473219 | 9.44° C | 29% | 1020 hPa | 0 mm | - | 374 W/m² | - |
* Rain latest hour (hover to see other rain measurements)
** Current wind speed in m/s (hover to see current wind gust speed)